Ogallala, NE

4:33 PM MST on December 10, 2016 (GMT -0700)
Searle

Weather History for KOGA - April, 2014

Change the Weather History Date:

Wednesday, April 2, 2014

  Actual Average Record
Temperature  
Mean Temperature 38 °F -  
Max Temperature 46 °F 55 °F 83 °F (1963)
Min Temperature 31 °F 28 °F -2 °F (1975)
Degree Days  
Heating Degree Days 26    
Moisture  
Dew Point 26 °F    
Average Humidity 63    
Maximum Humidity 84    
Minimum Humidity 47    
Precipitation  
Precipitation 0.00 in - - ()
Sea Level Pressure  
Sea Level Pressure 29.82 in    
Wind  
Wind Speed 11 mph (East)    
Max Wind Speed 15 mph    
Max Gust Speed 20 mph    
Visibility 10 miles    
Events      
Averages and records for this station are not official NWS values.
T = Trace of Precipitation, MM = Missing Value Source: NWS Daily Summary

Daily Weather History Graph

Daily Weather History Graph

Search for Another Location

Airport or City:

Trip Planner

Search our weather history database for the weather conditions in past years. The results will help you decide how hot, cold, wet, or windy it might be!

Date:

Astronomy

Apr. 02, 2014 Rise Set
Actual Time 6:28 AM MDT 7:13 PM MDT
Civil Twilight 6:00 AM MDT 7:41 PM MDT
Nautical Twilight 5:27 AM MDT 8:14 PM MDT
Astronomical Twilight 4:53 AM MDT 8:48 PM MDT
Moon 8:12 AM MDT (4/2) 10:40 PM MDT (4/2)
Length of Visible Light 13h 40m
Length of Day
12h 44m
Waxing Crescent, 10% of the Moon is Illuminated
Apr 2
Waxing Crescent
Apr 7
First Quarter
Apr 15
Full
Apr 22
Last Quarter
Apr 29
New

Hourly Weather History & Observations

Time (MDT) Temp. Windchill Dew Point Humidity Pressure Visibility Wind Dir Wind Speed Gust Speed Precip Events Conditions
12:15 AM 34.3 °F 24.6 °F 22.1 °F 61% 29.90 in 10.0 mi ESE 15.0 mph - N/A   Overcast
12:35 AM 34.0 °F 24.6 °F 22.1 °F 62% 29.90 in 10.0 mi ESE 13.8 mph - N/A   Overcast
12:55 AM 33.8 °F 24.3 °F 22.1 °F 62% 29.89 in 10.0 mi East 13.8 mph 18.4 mph N/A   Overcast
1:15 AM 33.8 °F 23.9 °F 22.1 °F 62% 29.89 in 10.0 mi East 15.0 mph - N/A   Overcast
1:35 AM 33.8 °F 24.8 °F 22.1 °F 62% 29.88 in 10.0 mi East 12.7 mph - N/A   Overcast
1:55 AM 33.8 °F 25.3 °F 21.9 °F 62% 29.88 in 10.0 mi East 11.5 mph - N/A   Overcast
2:15 AM 33.6 °F 25.0 °F 21.9 °F 62% 29.88 in 10.0 mi East 11.5 mph - N/A   Overcast
2:35 AM 33.3 °F 25.1 °F 21.9 °F 63% 29.88 in 10.0 mi East 10.4 mph - N/A   Overcast
2:55 AM 32.9 °F 25.3 °F 21.9 °F 64% 29.88 in 10.0 mi East 9.2 mph - N/A   Overcast
3:15 AM 32.4 °F 25.3 °F 21.9 °F 65% 29.88 in 10.0 mi ESE 8.1 mph - N/A   Mostly Cloudy
3:35 AM 32.0 °F 24.8 °F 21.9 °F 66% 29.87 in 10.0 mi East 8.1 mph - N/A   Scattered Clouds
3:55 AM 32.0 °F 25.6 °F 21.9 °F 66% 29.87 in 10.0 mi East 6.9 mph - N/A   Mostly Cloudy
4:15 AM 31.6 °F 23.1 °F 21.4 °F 66% 29.86 in 10.0 mi East 10.4 mph - N/A   Overcast
4:35 AM 31.5 °F 23.5 °F 21.2 °F 66% 29.87 in 10.0 mi East 9.2 mph - N/A   Overcast
4:55 AM 31.5 °F 23.5 °F 21.2 °F 66% 29.87 in 10.0 mi East 9.2 mph - N/A   Overcast
5:15 AM 31.5 °F 25.8 °F 21.2 °F 66% 29.87 in 10.0 mi East 5.8 mph - N/A   Overcast
6:35 AM 31.1 °F 24.5 °F 21.7 °F 68% 29.86 in 10.0 mi East 6.9 mph - N/A   Overcast
6:55 AM 31.1 °F 23.1 °F 21.7 °F 68% 29.86 in 10.0 mi East 9.2 mph - N/A   Overcast
7:15 AM 31.1 °F 23.7 °F 21.6 °F 68% 29.86 in 10.0 mi East 8.1 mph - N/A   Overcast
7:35 AM 31.5 °F 21.8 °F 21.4 °F 66% 29.85 in 10.0 mi East 12.7 mph - N/A   Overcast
7:55 AM 31.8 °F 23.3 °F 21.6 °F 66% 29.85 in 10.0 mi East 10.4 mph - N/A   Overcast
8:15 AM 32.0 °F 23.0 °F 21.7 °F 66% 29.84 in 10.0 mi East 11.5 mph - N/A   Overcast
8:35 AM 32.4 °F 22.5 °F 21.4 °F 64% 29.84 in 10.0 mi East 13.8 mph - N/A   Overcast
8:55 AM 33.3 °F 24.6 °F 21.9 °F 63% 29.84 in 10.0 mi ESE 11.5 mph - N/A   Overcast
9:15 AM 34.9 °F 26.6 °F 21.9 °F 59% 29.84 in 10.0 mi East 11.5 mph - N/A   Overcast
9:35 AM 35.2 °F 27.6 °F 22.3 °F 59% 29.84 in 10.0 mi East 10.4 mph - N/A   Overcast
9:55 AM 35.8 °F 28.3 °F 22.3 °F 58% 29.84 in 10.0 mi East 10.4 mph - N/A   Overcast
10:35 AM 37.6 °F 31.6 °F 22.8 °F 55% 29.84 in 10.0 mi ESE 8.1 mph - N/A   Overcast
10:55 AM 38.5 °F 31.6 °F 23.2 °F 54% 29.84 in 10.0 mi East 10.4 mph - N/A   Overcast
11:15 AM 40.3 °F 35.5 °F 23.7 °F 52% 29.83 in 10.0 mi SE 6.9 mph - N/A   Overcast
11:55 AM 40.1 °F 36.1 °F 23.9 °F 52% 29.82 in 10.0 mi East 5.8 mph - N/A   Overcast
12:15 PM 40.6 °F 34.8 °F 24.1 °F 52% 29.80 in 10.0 mi East 9.2 mph - N/A   Overcast
12:35 PM 41.4 °F 35.2 °F 24.8 °F 52% 29.80 in 10.0 mi East 10.4 mph - N/A   Overcast
12:55 PM 42.4 °F 36.5 °F 25.2 °F 50% 29.79 in 10.0 mi ESE 10.4 mph 16.1 mph N/A   Overcast
1:35 PM 43.9 °F 38.3 °F 26.1 °F 50% 29.78 in 10.0 mi ESE 10.4 mph 17.3 mph N/A   Overcast
1:55 PM 46.4 °F 40.1 °F 27.0 °F 47% 29.77 in 10.0 mi ESE 15.0 mph - N/A   Overcast
2:15 PM 44.6 °F 39.2 °F 27.0 °F 50% 29.76 in 10.0 mi ESE 10.4 mph 19.6 mph N/A   Overcast
2:35 PM 44.8 °F 40.4 °F 28.0 °F 52% 29.76 in 10.0 mi East 8.1 mph 19.6 mph N/A   Overcast
2:55 PM 44.2 °F 39.2 °F 27.3 °F 51% 29.75 in 10.0 mi SE 9.2 mph 17.3 mph N/A   Mostly Cloudy
3:15 PM 45.3 °F 39.7 °F 27.3 °F 49% 29.75 in 10.0 mi East 11.5 mph - N/A   Mostly Cloudy
3:35 PM 45.5 °F 40.3 °F 27.3 °F 49% 29.75 in 10.0 mi East 10.4 mph 18.4 mph N/A   Scattered Clouds
3:55 PM 46.2 °F 40.1 °F 28.2 °F 50% 29.75 in 10.0 mi East 13.8 mph 17.3 mph N/A   Scattered Clouds
4:15 PM 46.0 °F 40.6 °F 28.8 °F 51% 29.74 in 10.0 mi East 11.5 mph - N/A   Clear
4:35 PM 46.4 °F 41.9 °F 29.3 °F 51% 29.74 in 10.0 mi East 9.2 mph - N/A   Clear
4:55 PM 46.2 °F 41.2 °F 29.5 °F 52% 29.74 in 10.0 mi ESE 10.4 mph - N/A   Clear
5:15 PM 45.7 °F 39.5 °F 29.7 °F 54% 29.74 in 10.0 mi East 13.8 mph - N/A   Clear
5:35 PM 45.1 °F 39.9 °F 29.5 °F 54% 29.75 in 10.0 mi East 10.4 mph 18.4 mph N/A   Scattered Clouds
5:55 PM 43.7 °F 37.7 °F 29.3 °F 57% 29.75 in 10.0 mi East 11.5 mph - N/A   Scattered Clouds
6:15 PM 42.8 °F 35.8 °F 29.7 °F 60% 29.76 in 10.0 mi ENE 13.8 mph - N/A   Scattered Clouds
6:35 PM 41.9 °F 35.0 °F 29.8 °F 62% 29.77 in 10.0 mi ENE 12.7 mph - N/A   Mostly Cloudy
6:55 PM 41.0 °F 34.3 °F 30.2 °F 65% 29.78 in 10.0 mi ENE 11.5 mph - N/A   Mostly Cloudy
7:15 PM 40.1 °F 34.7 °F 30.2 °F 68% 29.79 in 10.0 mi NE 8.1 mph - N/A   Scattered Clouds
7:35 PM 39.2 °F 33.6 °F 30.0 °F 70% 29.78 in 10.0 mi NE 8.1 mph - N/A   Scattered Clouds
7:55 PM 37.9 °F 33.5 °F 29.8 °F 73% 29.79 in 10.0 mi NE 5.8 mph - N/A   Scattered Clouds
8:15 PM 36.9 °F 31.4 °F 29.7 °F 75% 29.78 in 10.0 mi NE 6.9 mph - N/A   Clear
8:35 PM 36.5 °F 31.8 °F 29.8 °F 77% 29.79 in 10.0 mi NE 5.8 mph - N/A   Clear
8:55 PM 36.3 °F 31.6 °F 29.8 °F 77% 29.79 in 10.0 mi NE 5.8 mph - N/A   Clear
9:15 PM 36.0 °F 29.6 °F 30.0 °F 79% 29.79 in 10.0 mi NE 8.1 mph - N/A   Clear
9:35 PM 36.5 °F 30.3 °F 29.7 °F 76% 29.80 in 10.0 mi NE 8.1 mph - N/A   Clear
9:55 PM 35.6 °F 30.7 °F 29.1 °F 77% 29.82 in 10.0 mi NE 5.8 mph - N/A   Clear
10:15 PM 35.1 °F 28.6 °F 29.3 °F 80% 29.83 in 10.0 mi ENE 8.1 mph - N/A   Clear
10:35 PM 35.2 °F 30.3 °F 29.8 °F 81% 29.84 in 10.0 mi ENE 5.8 mph - N/A   Clear
10:55 PM 34.7 °F 28.8 °F 29.8 °F 82% 29.82 in 10.0 mi NNE 6.9 mph - N/A   Clear
11:10 PM 34.9 °F - 30.2 °F 83% 29.84 in 10.0 mi Calm Calm - N/A   Mostly Cloudy
11:35 PM 34.9 °F 29.0 °F 30.6 °F 84% 29.83 in 10.0 mi NE 6.9 mph - N/A   Overcast
11:55 PM 35.6 °F 28.6 °F 31.1 °F 84% 29.82 in 10.0 mi NE 9.2 mph - N/A   Overcast